weather.gov     
National Weather Service

Regional Weather Roundup
NWS Homepage
This page is being discontinued on March 12, 2014.
The same data is available at this site. Please update your bookmarks.
Thank you, and we apologize for the inconvenience.
Please send an email to SR-SRH.Webmaster@noaa.gov with any concerns.


Current Version
Previous Version:    01  02  03  04  05  06  07  08  09  10  11  12  13  14  15  16  17  18  19  20  21  22  23  24  25  26  27  
[Printable]
802
ASUS45 KGGW 010715
RWRGGW
HOURLY WEATHER ROUNDUP FOR NORTHEAST MONTANA
NATIONAL WEATHER SERVICE GLASGOW MONTANA
100 AM MDT MON SEP 01 2014

NOTE: "FAIR" INDICATES FEW OR NO CLOUDS BELOW 12,000 FEET WITH NO
SIGNIFICANT WEATHER AND/OR OBSTRUCTIONS TO VISISBILITY.

NORTHEAST MONTANA


CITY           SKY/WX    TMP DP  RH WIND       PRES   REMARKS
GLASGOW        PTCLDY    51  47  86 VRB3      29.82R
PLENTYWOOD       N/A     54  49  83 W8          N/A
WOLF POINT     CLEAR     55  48  77 N12       29.81R
JORDAN           N/A     56  50  80 W7        29.84R
WINNETT          N/A     58  45  62 W9          N/A
SIDNEY         PTCLDY    54  48  82 W7        29.79R
GLENDIVE       PTCLDY    52  46  82 SE3       29.82S
MALTA            N/A     56  49  77 SW5         N/A
SCOBEY           N/A     49  43  80 CALM      29.80F

FORT PECK REPORTS


CITY           SKY/WX    TMP DP  RH WIND       PRES   REMARKS
FORT PECK        N/A     56  48  74 NE6         N/A
THE PINES        N/A     57  47  69 N7          N/A

SOUTHEAST MONTANA


CITY           SKY/WX    TMP DP  RH WIND       PRES   REMARKS
BILLINGS       MOCLDY    58  46  64 SW14      29.94R
MILES CITY     PTCLDY    60  45  57 NW6       29.84R
BAKER          PTCLDY    55  46  71 SW13      29.85R
LIVINGSTON     CLOUDY    50  47  89 CALM      29.99R

CENTRAL MONTANA


CITY           SKY/WX    TMP DP  RH WIND       PRES   REMARKS
HAVRE          CLOUDY    57  46  66 SW8       29.86R
LEWISTOWN      MOCLDY    54  43  66 W5        29.95S
GREAT FALLS    MOCLDY    53  37  54 W9        29.92R
CUT BANK       MOCLDY    52  39  61 W14       29.90S
HELENA         MOCLDY    57  39  51 W9        29.98R
BUTTE          MOCLDY    48  37  65 W6        30.05R
BOZEMAN        CLOUDY    51  47  86 SE6       30.00R

WESTERN MONTANA


CITY           SKY/WX    TMP DP  RH WIND       PRES   REMARKS
MISSOULA       MOCLDY    51  41  68 CALM      30.02S
KALISPELL      NOT AVBL

NORTH DAKOTA


CITY           SKY/WX    TMP DP  RH WIND       PRES   REMARKS
WILLISTON      CLOUDY    57  53  86 NE8       29.80R
DICKINSON      CLEAR     52  47  83 W7        29.78S
MINOT          CLEAR     54  51  90 SW8       29.74R
BISMARCK       MOCLDY    58  56  93 N5        29.77R

SOUTHERN SASKATCHEWAN


CITY           SKY/WX    TMP DP  RH WIND       PRES   REMARKS
REGINA         MOCLDY    50  50 100 N7        29.76S
ESTEVAN        PTCLDY    52  50  93 W7        29.76R
SWIFT CURRENT  CLEAR     46  43  87 SW12      29.81S





U.S. Dept. of Commerce
NOAA National Weather Service
1325 East West Highway
Silver Spring, MD 20910
E-mail: w-nws.webmaster@noaa.gov
Page last modified: May 16, 2007
NATIONAL WEATHER SERVICE: for Safety, for Work, for Fun - FOR LIFE